1491490800.75,28913,14.06,72518.5,-10.75,-11.55,-11.45,0,*63
1491490802.04,28914,14.0,72510.8,-10.75,-11.59,-11.59,0,*65
1491490803.31,28915,14.0,72508.0,-10.77,-11.67,-11.63,0,*62
1491490804.6,28916,14.0,72508.8,-10.75,-11.59,-11.55,0,*6B
1491490805.9,28917,14.0,72500.5,-10.75,-11.59,-11.59,0,*66
1491490807.19,28918,14.0,72504.5,-10.75,-11.59,-11.59,0,*69
1491490808.46,28919,14.0,72518.5,-10.73,-11.59,-11.59,0,*6E
1491490809.73,28920,14.0,72516.0,-10.73,-11.55,-11.55,0,*64
1491490811.02,28921,14.0,72526.0,-10.71,-11.55,-11.55,0,*67
1491490812.29,28922,14.06,72530.0,-10.73,-11.59,-11.59,0,*66
1491490813.57,28923,14.0,72526.5,-10.73,-11.59,-11.63,0,*6E
1491490814.86,28924,14.0,72536.0,-10.71,-11.55,-11.51,0,*66
1491490816.13,28925,14.0,72510.8,-10.73,-11.59,-11.59,0,*61
1491490817.4,28926,14.0,72520.0,-10.73,-11.55,-11.55,0,*62
1491490818.62,28927,14.06,72520.3,-10.73,-11.41,-11.41,0,*63
1491490819.89,28928,14.06,72520.3,-10.71,-11.41,-11.37,0,*6F
1491490821.17,28929,14.06,72508.5,-10.71,-11.51,-11.51,0,*6F
1491490822.46,28930,14.0,72530.0,-10.71,-11.51,-11.51,0,*67
1491490823.75,28931,14.0,72528.5,-10.71,-11.55,-11.51,0,*62
1491490824.99,28932,14.0,72534.5,-10.71,-11.41,-11.41,0,*65
1491490826.28,28933,14.0,72520.5,-10.71,-11.55,-11.51,0,*60
1491490827.52,28934,14.0,72526.5,-10.71,-11.41,-11.41,0,*63
1491490828.81,28935,14.0,72524.5,-10.71,-11.67,-11.59,0,*6F
1491490830.1,28936,14.06,72538.5,-10.71,-11.59,-11.59,0,*61
1491490831.39,28937,14.0,72540.3,-10.71,-11.67,-11.59,0,*6D
1491490832.68,28938,14.0,72540.5,-10.71,-11.59,-11.59,0,*6F
1491490833.93,28939,14.0,72532.8,-10.73,-11.41,-11.29,0,*62
1491490835.2,28940,14.0,72518.3,-10.69,-11.55,-11.55,0,*69
1491490836.47,28941,14.0,72546.8,-10.69,-11.55,-11.55,0,*68
1491490837.74,28942,14.0,72560.3,-10.69,-11.59,-11.55,0,*67
1491490839.0,28943,14.0,72584.5,-10.69,-11.59,-11.59,0,*6A
1491490840.26,28944,14.0,72556.0,-10.69,-11.51,-11.51,0,*6D
1491490841.51,28945,14.0,72544.0,-10.69,-11.45,-11.37,0,*69
1491490842.78,28946,14.0,72526.3,-10.69,-11.55,-11.55,0,*6F
1491490844.04,28947,14.0,72542.0,-10.69,-11.59,-11.59,0,*6E
1491490845.31,28948,14.0,72534.5,-10.69,-11.55,-11.55,0,*61
1491490846.58,28949,14.0,72518.5,-10.69,-11.59,-11.59,0,*60
1491490847.82,28950,14.0,72496.3,-10.67,-12.03,-12.03,0,*66
1491490849.07,28951,14.0,72444.0,-10.69,-12.35,-12.21,0,*6C
1491490850.28,28952,14.0,72414.5,-10.69,-12.47,-12.47,0,*6A
1491490851.52,28953,14.0,72414.3,-10.71,-12.47,-12.39,0,*6B
1491490852.81,28954,14.0,72408.3,-10.71,-12.07,-11.97,0,*6F
1491490854.09,28955,14.0,72450.3,-10.73,-11.63,-11.63,0,*66
1491490855.36,28956,14.0,72442.5,-10.73,-11.59,-11.63,0,*6C
1491490856.65,28957,14.0,72456.8,-10.71,-11.59,-11.55,0,*6A
1491490857.9,28958,14.0,72446.8,-10.73,-12.15,-12.25,0,*68
1491490859.12,28959,14.0,72426.0,-10.73,-12.39,-12.39,0,*6A
1491490860.35,28960,14.0,72456.0,-10.71,-12.39,-12.39,0,*62
1491490861.58,28961,14.0,72434.8,-10.73,-12.25,-12.25,0,*61
1491490862.82,28962,14.0,72462.0,-10.73,-12.03,-11.97,0,*6C
1491490864.04,28963,14.0,72468.3,-10.73,-12.03,-12.03,0,*63
1491490865.28,28964,14.0,72488.3,-10.73,-12.11,-12.03,0,*67
1491490866.55,28965,14.0,72506.5,-10.73,-11.89,-11.77,0,*64
1491490867.82,28966,14.0,72488.3,-10.73,-11.89,-11.89,0,*66
1491490869.09,28967,14.0,72498.3,-10.73,-11.63,-11.59,0,*6E
1491490870.36,28968,14.0,72474.5,-10.73,-11.85,-11.85,0,*68
1491490871.62,28969,14.0,72452.3,-10.73,-11.73,-11.73,0,*69
1491490872.9,28970,14.0,72428.5,-10.73,-11.63,-11.63,0,*61
1491490874.17,28971,14.0,72436.0,-10.73,-11.59,-11.59,0,*60
1491490875.44,28972,14.0,72440.5,-10.73,-11.55,-11.55,0,*63
1491490876.71,28973,14.0,72452.8,-10.73,-11.59,-11.59,0,*62
1491490877.98,28974,14.0,72450.0,-10.73,-11.55,-11.55,0,*65
1491490879.27,28975,14.0,72458.0,-10.71,-11.55,-11.59,0,*6A
1491490880.56,28976,14.0,72452.0,-10.71,-11.51,-11.51,0,*65
1491490881.82,28977,14.0,72452.8,-10.71,-11.51,-11.41,0,*65
1491490883.09,28978,14.0,72460.8,-10.71,-11.41,-11.37,0,*6A
1491490884.37,28979,14.0,72462.3,-10.71,-11.55,-11.51,0,*6E
1491490885.67,28980,14.0,72456.5,-10.71,-11.55,-11.55,0,*6C
1491490886.95,28981,14.0,72456.3,-10.71,-11.51,-11.37,0,*6D
1491490888.21,28982,14.0,72462.0,-10.71,-11.51,-11.41,0,*6F
1491490889.5,28983,14.0,72464.5,-10.71,-11.37,-11.29,0,*60
1491490890.72,28984,14.0,72466.5,-10.69,-11.41,-11.41,0,*61
1491490891.99,28985,14.0,72478.8,-10.69,-11.59,-11.59,0,*60
1491490893.26,28986,14.0,72476.8,-10.69,-11.67,-11.67,0,*63
1491490894.53,28987,14.0,72470.8,-10.69,-11.59,-11.59,0,*62
1491490895.79,28988,14.0,72466.5,-10.69,-11.67,-11.67,0,*6D
1491490897.06,28989,14.0,72498.3,-10.69,-11.59,-11.59,0,*6C
1491490898.32,28990,14.0,72526.5,-10.69,-11.51,-11.51,0,*64
1491490899.54,28991,14.0,72538.5,-10.69,-11.41,-11.41,0,*65
1491490900.78,28992,14.0,72528.8,-10.69,-11.51,-11.41,0,*67
1491490902.07,28993,14.0,72530.8,-10.67,-11.33,-11.37,0,*6D
1491490903.31,28994,14.0,72530.5,-10.67,-11.19,-11.19,0,*6E
1491490904.55,28995,14.0,72542.0,-10.67,-11.23,-11.23,0,*6F
1491490905.82,28996,14.0,72548.8,-10.67,-11.33,-11.23,0,*6D
1491490907.08,28997,14.0,72540.3,-10.69,-11.37,-11.29,0,*6C
1491490908.37,28998,14.0,72534.0,-10.67,-11.37,-11.33,0,*66
1491490909.66,28999,14.0,72524.3,-10.67,-11.33,-11.37,0,*67
1491490910.94,29000,14.0,72510.0,-10.67,-11.37,-11.37,0,*6B
1491490912.23,29001,14.0,72510.8,-10.67,-11.33,-11.33,0,*6A
1491490913.52,29002,14.0,72520.0,-10.67,-11.33,-11.33,0,*69
1491490914.81,29003,14.0,72526.8,-10.67,-11.37,-11.37,0,*68
1491490916.05,29004,14.0,72530.3,-10.65,-11.33,-11.23,0,*6C
1491490917.26,29005,14.0,72546.0,-10.65,-11.19,-11.11,0,*64
1491490918.5,29006,14.0,72536.8,-10.65,-11.11,-11.07,0,*68
1491490919.79,29007,14.0,72524.8,-10.63,-11.33,-11.37,0,*6C
1491490921.05,29008,14.0,72550.3,-10.65,-11.33,-11.33,0,*61
1491490922.31,29009,14.0,72530.5,-10.63,-11.33,-11.23,0,*67
1491490923.53,29010,14.0,72554.0,-10.65,-11.23,-11.23,0,*68
1491490924.79,29011,14.0,72484.0,-10.63,-11.45,-11.51,0,*6A
1491490926.04,29012,14.0,72526.5,-10.63,-11.45,-11.45,0,*6C
1491490927.28,29013,14.0,72518.0,-10.65,-11.45,-11.51,0,*6E
1491490928.52,29014,14.0,72502.8,-10.65,-11.51,-11.45,0,*69
1491490929.81,29015,14.0,72510.3,-10.63,-11.51,-11.51,0,*6B
1491490931.09,29016,14.0,72510.0,-10.63,-11.51,-11.51,0,*68
1491490932.38,29017,14.0,72532.3,-10.63,-11.51,-11.51,0,*69
1491490933.64,29018,14.0,72534.3,-10.63,-11.45,-11.37,0,*63
1491490934.94,29019,14.0,72506.5,-10.63,-11.63,-11.63,0,*67
1491490936.23,29020,14.0,72512.5,-10.63,-11.77,-11.77,0,*6D
1491490937.52,29021,14.0,72470.5,-10.63,-11.77,-11.63,0,*69
1491490938.8,29022,14.0,72478.8,-10.63,-11.37,-11.51,0,*6F
1491490940.07,29023,14.0,72522.0,-10.63,-11.37,-11.19,0,*62
1491490941.35,29024,14.0,72516.5,-10.63,-11.33,-11.37,0,*6D
1491490942.63,29025,14.0,72542.3,-10.63,-11.33,-11.33,0,*68
1491490943.92,29026,14.0,72540.5,-10.63,-11.37,-11.33,0,*6F
1491490945.2,29027,14.0,72554.3,-10.63,-11.77,-11.77,0,*6A
1491490946.49,29028,14.0,72558.0,-10.63,-12.15,-12.15,0,*65
1491490947.73,29029,14.0,72562.0,-10.63,-12.29,-12.29,0,*64
1491490948.96,29030,14.0,72542.8,-10.65,-12.29,-12.29,0,*6A
1491490950.22,29031,14.0,72472.0,-10.63,-12.03,-12.07,0,*69
1491490951.46,29032,14.0,72470.3,-10.65,-12.03,-11.93,0,*62
1491490952.73,29033,14.0,72480.5,-10.65,-11.63,-11.63,0,*69
1491490953.95,29034,14.0,72476.3,-10.65,-12.03,-12.03,0,*6E
1491490955.19,29035,14.0,72468.8,-10.65,-12.21,-12.15,0,*68
1491490956.47,29036,14.0,72546.0,-10.65,-11.63,-11.63,0,*6C
1491490957.74,29037,14.0,72524.0,-10.65,-12.15,-12.07,0,*6E
1491490958.95,29038,14.0,72550.3,-10.65,-12.03,-12.03,0,*62
1491490960.21,29039,14.0,72554.3,-10.65,-11.77,-11.77,0,*63
1491490961.47,29040,14.0,72548.0,-10.65,-11.81,-11.81,0,*6D
1491490962.74,29041,14.0,72516.8,-10.65,-11.63,-11.63,0,*6C
1491490964.01,29042,14.0,72546.0,-10.65,-11.77,-11.67,0,*6E
1491490965.28,29043,14.0,72546.8,-10.65,-12.15,-12.07,0,*6D
1491490966.52,29044,14.0,72530.5,-10.65,-12.15,-12.03,0,*6E
1491490967.77,29045,14.0,72496.3,-10.65,-12.07,-12.03,0,*6C
1491490969.03,29046,14.0,72494.5,-10.69,-11.89,-11.81,0,*6F
1491490970.32,29047,14.0,72472.0,-10.67,-11.93,-11.81,0,*6B
1491490971.61,29048,14.0,72460.0,-10.67,-11.81,-11.67,0,*6F
1491490972.9,29049,14.0,72426.8,-10.67,-11.77,-11.77,0,*66
1491490974.18,29050,14.0,72436.3,-10.67,-11.81,-11.81,0,*6E
1491490975.47,29051,14.0,72444.8,-10.67,-11.55,-11.51,0,*6B
1491490976.77,29052,14.0,72466.8,-10.67,-11.55,-11.55,0,*6C
1491490978.06,29053,14.0,72450.3,-10.67,-11.55,-11.51,0,*69
1491490979.35,29054,14.0,72468.5,-10.67,-11.55,-11.51,0,*6E
1491490980.65,29055,14.0,72496.8,-10.67,-11.55,-11.63,0,*6E
1491490981.92,29056,14.0,72516.0,-10.65,-11.63,-11.63,0,*6A
1491490983.19,29057,14.0,72514.3,-10.65,-11.55,-11.55,0,*6B
1491490984.46,29058,14.0,72520.0,-10.65,-11.55,-11.55,0,*64
1491490985.7,29059,14.0,72480.8,-10.65,-11.51,-11.45,0,*60
1491490986.91,29060,14.0,72502.5,-10.65,-11.23,-11.19,0,*66
1491490988.15,29061,14.0,72486.3,-10.65,-11.51,-11.45,0,*6B
1491490989.42,29062,14.0,72498.5,-10.63,-11.51,-11.45,0,*6E
1491490990.68,29063,14.0,72494.8,-10.65,-11.51,-11.51,0,*6C
1491490991.92,29064,14.0,72502.5,-10.63,-11.45,-11.45,0,*6D
1491490993.21,29065,14.0,72486.3,-10.63,-11.51,-11.37,0,*6C
1491490994.45,29066,14.0,72500.3,-10.63,-11.45,-11.45,0,*6F
1491490995.73,29067,14.0,72500.8,-10.63,-11.33,-11.33,0,*6E
1491490997.02,29068,14.0,72482.5,-10.63,-11.37,-11.37,0,*61
1491490998.3,29069,14.0,72474.8,-10.63,-11.37,-11.37,0,*60
1491490999.59,29070,14.0,72490.3,-10.63,-11.33,-11.33,0,*68
1491491000.83,29071,14.0,72498.5,-10.59,-11.41,-11.41,0,*60
1491491002.12,29072,14.0,72480.3,-10.59,-11.33,-11.33,0,*63
1491491003.36,29073,14.0,72484.3,-10.59,-11.19,-11.15,0,*6E
1491491004.66,29074,14.0,72516.5,-10.59,-11.29,-11.29,0,*65
1491491005.93,29075,14.0,72508.8,-10.59,-11.29,-11.19,0,*67
1491491007.22,29076,14.0,72526.5,-10.59,-11.29,-11.29,0,*67
1491491008.51,29077,14.0,72534.0,-10.59,-11.33,-11.33,0,*66
1491491009.73,29078,14.0,72526.3,-10.57,-11.41,-11.41,0,*67
1491491011.0,29079,14.0,72548.0,-10.59,-11.41,-11.33,0,*6D
1491491012.22,29080,14.0,72544.5,-10.57,-11.41,-11.41,0,*60
1491491013.49,29081,14.0,72546.8,-10.57,-11.59,-11.59,0,*61
1491491014.72,29082,14.0,72546.3,-10.57,-11.45,-11.45,0,*62
1491491015.96,29083,14.0,72542.5,-10.57,-11.41,-11.37,0,*62
1491491017.23,29084,14.0,72526.5,-10.57,-11.55,-11.55,0,*64
1491491018.5,29085,14.0,72530.8,-10.59,-11.59,-11.45,0,*66
1491491019.77,29086,14.0,72530.8,-10.57,-11.59,-11.59,0,*66
1491491021.04,29087,14.0,72508.0,-10.57,-11.73,-11.73,0,*67
1491491022.32,29088,14.0,72512.8,-10.59,-11.73,-11.73,0,*66
1491491023.61,29089,14.0,72510.3,-10.59,-11.51,-11.51,0,*67
1491491024.84,29090,14.0,72514.0,-10.57,-11.45,-11.45,0,*61
1491491026.12,29091,14.0,72528.5,-10.59,-11.33,-11.33,0,*6E
1491491027.37,29092,14.0,72520.0,-10.59,-11.41,-11.45,0,*69
1491491028.64,29093,14.0,72516.0,-10.57,-11.29,-11.37,0,*6D
1491491029.89,29094,14.0,72510.8,-10.57,-11.29,-11.23,0,*6F
1491491031.11,29095,14.0,72514.5,-10.57,-11.23,-11.23,0,*64
1491491032.35,29096,14.0,72508.8,-10.57,-11.29,-11.23,0,*6D
1491491033.62,29097,14.0,72500.3,-10.57,-11.37,-11.37,0,*66
1491491034.87,29098,14.0,72476.5,-10.57,-11.41,-11.29,0,*67
1491491036.11,29099,14.0,72454.5,-10.57,-11.41,-11.37,0,*69
1491491037.33,29100,14.0,72450.0,-10.57,-11.41,-11.41,0,*69
1491491038.56,29101,14.0,72430.5,-10.57,-11.45,-11.45,0,*68
1491491039.82,29102,14.0,72416.8,-10.57,-11.37,-11.37,0,*6B
1491491041.07,29103,14.0,72408.5,-10.57,-11.23,-11.29,0,*60
1491491042.31,29104,14.0,72414.8,-10.57,-11.37,-11.41,0,*6C
1491491043.56,29105,14.0,72438.3,-10.57,-11.29,-11.23,0,*66
1491491044.84,29106,14.0,72480.0,-10.57,-11.29,-11.29,0,*6F
1491491046.1,29107,14.0,72486.3,-10.57,-11.37,-11.37,0,*6E
1491491047.32,29108,14.0,72512.0,-10.57,-11.23,-11.23,0,*61
1491491048.56,29109,14.0,72514.3,-10.55,-11.11,-11.11,0,*62
1491491049.83,29110,14.0,72524.3,-10.53,-11.07,-11.07,0,*6C
1491491051.07,29111,14.0,72542.5,-10.55,-11.15,-11.15,0,*6B
1491491052.31,29112,14.0,72560.8,-10.55,-11.15,-11.15,0,*68
1491491053.56,29113,14.0,72556.3,-10.55,-11.01,-11.11,0,*68
1491491054.8,29114,14.0,72538.3,-10.55,-11.23,-11.15,0,*6B
1491491056.09,29115,14.0,72520.8,-10.55,-11.55,-11.55,0,*6F
1491491057.34,29116,14.0,72522.0,-10.55,-11.45,-11.45,0,*6C
1491491058.64,29117,14.0,72520.8,-10.55,-11.29,-11.29,0,*6D
1491491059.91,29118,14.0,72508.3,-10.53,-11.33,-11.37,0,*60
1491491061.2,29119,14.0,72516.8,-10.55,-11.29,-11.29,0,*63
1491491062.47,29120,14.0,72530.0,-10.53,-11.33,-11.37,0,*6B
1491491063.76,29121,14.0,72536.8,-10.55,-11.37,-11.29,0,*67
1491491065.02,29122,14.0,72530.0,-10.53,-11.33,-11.37,0,*69
1491491066.29,29123,14.0,72532.3,-10.55,-11.37,-11.41,0,*6B
1491491067.52,29124,14.0,72528.3,-10.53,-11.41,-11.41,0,*6B
1491491068.78,29125,14.0,72518.5,-10.53,-11.33,-11.37,0,*6E
1491491070.04,29126,14.0,72528.5,-10.53,-11.37,-11.33,0,*6D
1491491071.29,29127,14.0,72544.8,-10.53,-11.23,-11.37,0,*6D
1491491072.55,29128,14.0,72528.8,-10.53,-11.37,-11.37,0,*67
1491491073.82,29129,14.0,72516.5,-10.53,-11.33,-11.37,0,*62
1491491075.08,29130,14.0,72516.0,-10.53,-11.51,-11.55,0,*6A
1491491076.33,29131,14.0,72530.8,-10.53,-11.41,-11.37,0,*6E
1491491077.59,29132,14.0,72538.3,-10.53,-11.37,-11.33,0,*68
1491491078.85,29133,14.0,72528.5,-10.53,-11.33,-11.37,0,*69
1491491080.12,29134,14.0,72522.8,-10.53,-11.33,-11.37,0,*6E
1491491081.34,29135,14.0,72510.8,-10.53,-11.23,-11.19,0,*62
1491491082.55,29136,14.0,72492.3,-10.53,-11.19,-11.11,0,*60
1491491083.77,29137,14.0,72468.5,-10.53,-11.23,-11.23,0,*69
1491491085.03,29138,14.0,72478.0,-10.53,-11.33,-11.33,0,*66
1491491086.27,29139,14.0,72474.3,-10.51,-11.19,-11.19,0,*65
1491491087.51,29140,14.0,72520.5,-10.51,-11.23,-11.23,0,*6B
1491491088.78,29141,14.0,72508.8,-10.51,-11.07,-10.93,0,*66
1491491090.02,29142,14.0,72516.0,-10.51,-11.23,-11.19,0,*60
1491491091.26,29143,14.0,72524.0,-10.51,-11.19,-11.19,0,*68
1491491092.52,29144,14.0,72516.3,-10.49,-11.33,-11.33,0,*66
1491491093.78,29145,14.0,72546.3,-10.51,-11.33,-11.19,0,*66
1491491095.05,29146,14.0,72536.3,-10.51,-11.33,-11.19,0,*65
1491491096.28,29147,14.0,72522.5,-10.51,-11.19,-11.19,0,*6C
1491491097.57,29148,14.0,72512.3,-10.51,-11.37,-11.33,0,*67
1491491098.82,29149,14.0,72462.0,-10.49,-11.45,-11.63,0,*6F
1491491100.04,29150,14.0,72464.0,-10.49,-11.45,-11.45,0,*63
1491491101.33,29151,14.0,72474.8,-10.51,-11.51,-11.51,0,*6B
1491491102.59,29152,14.0,72488.0,-10.49,-11.37,-11.37,0,*61
1491491103.86,29153,14.0,72488.8,-10.51,-11.41,-11.51,0,*68
1491491105.12,29154,14.0,72464.5,-10.49,-11.37,-11.37,0,*67
1491491106.38,29155,14.0,72432.0,-10.51,-11.41,-11.37,0,*6E
1491491107.63,29156,14.0,72438.0,-10.51,-11.41,-11.41,0,*6C
1491491108.85,29157,14.0,72440.0,-10.49,-11.45,-11.45,0,*64
1491491110.11,29158,14.0,72454.0,-10.49,-11.51,-11.51,0,*6B
1491491111.4,29159,14.0,72444.5,-10.51,-11.89,-11.81,0,*6B
1491491112.7,29160,14.0,72448.8,-10.51,-11.67,-11.67,0,*69
1491491113.99,29161,14.0,72438.5,-10.51,-11.55,-11.55,0,*68
1491491115.25,29162,14.0,72450.0,-10.53,-11.51,-11.51,0,*69
1491491116.53,29163,14.0,72416.8,-10.53,-11.55,-11.55,0,*68
1491491117.8,29164,14.0,72452.8,-10.53,-11.55,-11.63,0,*6A
1491491119.09,29165,14.0,72444.0,-10.51,-11.51,-11.51,0,*6C
1491491120.38,29166,14.0,72520.5,-10.51,-11.55,-11.51,0,*6B
1491491121.67,29167,14.0,72508.3,-10.51,-11.63,-11.67,0,*6A
1491491122.96,29168,14.0,72522.8,-10.51,-11.67,-11.77,0,*60
1491491124.24,29169,14.0,72502.8,-10.51,-11.93,-12.03,0,*6A
1491491125.53,29170,14.0,72488.0,-10.51,-11.93,-11.81,0,*6B
1491491126.82,29171,14.0,72492.5,-10.51,-11.81,-11.67,0,*61
1491491128.09,29172,14.0,72486.8,-10.53,-11.89,-11.93,0,*63
1491491129.34,29173,14.0,72484.3,-10.53,-12.07,-12.03,0,*6D
1491491130.6,29174,14.0,72504.3,-10.53,-12.15,-12.15,0,*6E
1491491131.83,29175,14.0,72488.5,-10.53,-12.29,-12.21,0,*67
1491491133.07,29176,14.0,72500.5,-10.53,-12.07,-12.03,0,*68
1491491134.37,29177,14.0,72492.3,-10.55,-12.07,-12.07,0,*6B
1491491135.64,29178,14.0,72502.3,-10.55,-12.11,-12.21,0,*67
1491491136.89,29179,14.0,72506.8,-10.55,-12.21,-12.21,0,*65
1491491138.18,29180,14.0,72506.5,-10.55,-12.07,-12.11,0,*64
1491491139.48,29181,14.0,72512.5,-10.55,-12.11,-12.11,0,*62
1491491140.75,29182,14.0,72492.0,-10.57,-12.07,-12.07,0,*63
1491491142.01,29183,14.0,72518.3,-10.57,-11.81,-11.81,0,*62
1491491143.28,29184,14.0,72506.0,-10.57,-11.67,-11.73,0,*60
1491491144.5,29185,14.0,72466.3,-10.57,-12.25,-12.21,0,*60
1491491145.77,29186,14.0,72476.0,-10.57,-11.85,-11.81,0,*63
1491491147.03,29187,14.0,72504.3,-10.57,-11.73,-11.85,0,*6F
1491491148.3,29188,14.0,72482.8,-10.57,-12.11,-12.11,0,*69
1491491149.55,29189,14.0,72428.0,-10.57,-12.35,-12.43,0,*69
1491491150.79,29190,14.0,72454.5,-10.59,-12.29,-12.29,0,*6E
1491491152.04,29191,14.0,72472.3,-10.59,-12.25,-12.25,0,*6F
1491491153.28,29192,14.0,72484.0,-10.59,-12.25,-12.25,0,*6C
1491491154.53,29193,14.0,72476.8,-10.59,-12.25,-12.25,0,*6D
1491491155.77,29194,14.0,72408.3,-10.59,-12.43,-12.43,0,*6A
1491491157.06,29195,14.0,72442.3,-10.59,-12.57,-12.61,0,*6E
1491491158.33,29196,14.0,72432.5,-10.65,-12.53,-12.53,0,*67
1491491159.6,29197,14.0,72416.3,-10.65,-12.35,-12.35,0,*66
1491491160.83,29198,14.0,72404.0,-10.65,-12.21,-12.21,0,*69
1491491162.1,29199,14.0,72420.8,-10.63,-11.93,-12.03,0,*64
1491491163.37,29200,14.0,72422.5,-10.65,-11.93,-11.89,0,*60
1491491164.61,29201,14.0,72414.0,-10.65,-12.03,-11.93,0,*60
1491491165.89,29202,14.0,72422.5,-10.65,-11.93,-11.89,0,*62
1491491167.18,29203,14.0,72416.5,-10.63,-11.67,-11.67,0,*6E
1491491168.45,29204,14.0,72488.0,-10.65,-11.67,-11.63,0,*6B
1491491169.74,29205,14.0,72488.3,-10.63,-11.63,-11.55,0,*6D
1491491171.01,29206,14.0,72476.8,-10.65,-11.55,-11.51,0,*69
1491491172.3,29207,14.0,72460.5,-10.63,-11.55,-11.55,0,*6A
1491491173.57,29208,14.0,72432.5,-10.65,-11.63,-11.55,0,*66
1491491174.84,29209,14.0,72446.5,-10.63,-11.93,-12.03,0,*6E
1491491176.13,29210,14.0,72440.0,-10.63,-11.89,-11.89,0,*6C
1491491177.42,29211,14.0,72432.5,-10.63,-11.89,-11.89,0,*6D
1491491178.7,29212,14.0,72434.5,-10.65,-11.67,-11.63,0,*6C
1491491179.96,29213,14.0,72426.0,-10.65,-11.77,-11.77,0,*69
1491491181.2,29214,14.0,72420.3,-10.63,-12.03,-12.03,0,*68
1491491182.44,29215,14.0,72414.8,-10.65,-12.07,-12.03,0,*6B
1491491183.68,29216,14.0,72424.8,-10.65,-12.07,-12.03,0,*68
1491491184.96,29217,14.0,72466.0,-10.65,-11.93,-11.93,0,*6D
1491491186.25,29218,14.0,72446.8,-10.63,-12.07,-12.07,0,*64
1491491187.51,29219,14.0,72454.5,-10.65,-11.81,-11.81,0,*63
1491491188.78,29220,14.0,72456.3,-10.65,-11.55,-11.55,0,*69
1491491190.06,29221,14.0,72472.0,-10.63,-11.51,-11.51,0,*6E
1491491191.35,29222,14.0,72474.3,-10.63,-11.51,-11.51,0,*6D
1491491192.59,29223,14.0,72474.0,-10.63,-11.45,-11.45,0,*6C
1491491193.86,29224,14.0,72488.3,-10.63,-11.45,-11.37,0,*6E
1491491195.14,29225,14.0,72488.5,-10.63,-11.51,-11.51,0,*6A
1491491196.41,29226,14.0,72488.8,-10.63,-11.51,-11.45,0,*6C
1491491197.69,29227,14.0,72486.0,-10.63,-11.37,-11.37,0,*68
1491491198.98,29228,14.0,72480.3,-10.63,-11.51,-11.51,0,*67
1491491200.22,29229,14.0,72444.0,-10.57,-11.55,-11.45,0,*60
1491491201.49,29230,14.0,72458.8,-10.59,-11.51,-11.41,0,*66
1491491202.74,29231,14.0,72454.3,-10.59,-11.45,-11.45,0,*66
1491491203.98,29232,14.0,72470.0,-10.59,-11.45,-11.45,0,*65
1491491205.23,29233,14.0,72478.0,-10.59,-11.45,-11.45,0,*64
1491491206.48,29234,14.0,72482.5,-10.59,-11.45,-11.45,0,*63
1491491207.71,29235,14.0,72468.5,-10.57,-11.41,-11.41,0,*6C
1491491208.93,29236,14.0,72466.3,-10.57,-11.45,-11.45,0,*6F
1491491210.2,29237,14.0,72454.8,-10.59,-11.45,-11.37,0,*65
1491491211.45,29238,14.0,72490.8,-10.59,-11.45,-11.45,0,*6F
1491491212.72,29239,14.0,72494.8,-10.57,-11.55,-11.55,0,*60
1491491214.01,29240,13.94,72484.0,-10.59,-11.59,-11.59,0,*60
1491491215.31,29241,14.0,72488.0,-10.59,-11.59,-11.51,0,*69
1491491216.57,29242,14.0,72478.3,-10.59,-11.51,-11.45,0,*67
1491491217.8,29243,14.0,72508.0,-10.57,-11.45,-11.41,0,*69
1491491219.04,29244,14.0,72496.8,-10.57,-11.55,-11.45,0,*6B
1491491220.27,29245,14.0,72506.3,-10.57,-11.45,-11.45,0,*6B
1491491221.51,29246,14.0,72526.0,-10.57,-11.55,-11.45,0,*69
1491491222.79,29247,14.0,72516.5,-10.57,-11.55,-11.55,0,*69
1491491224.05,29248,14.0,72524.5,-10.57,-11.55,-11.59,0,*6A
1491491225.33,29249,14.0,72524.8,-10.57,-11.59,-11.55,0,*6B
1491491226.62,29250,14.0,72510.8,-10.59,-11.97,-11.89,0,*6E
1491491227.89,29251,13.94,72502.8,-10.57,-11.55,-11.59,0,*62
1491491229.11,29252,14.0,72504.8,-10.57,-11.45,-11.45,0,*6D
1491491230.4,29253,13.94,72524.3,-10.59,-11.51,-11.51,0,*62
1491491231.67,29254,13.94,72504.5,-10.57,-11.55,-11.55,0,*6B
1491491232.9,29255,14.0,72508.5,-10.57,-11.41,-11.41,0,*6A
1491491234.14,29256,14.0,72494.5,-10.59,-11.41,-11.45,0,*63
1491491235.37,29257,14.0,72488.8,-10.57,-11.41,-11.41,0,*68
1491491236.63,29258,13.94,72530.5,-10.57,-11.37,-11.37,0,*67
1491491237.86,29259,14.0,72510.5,-10.57,-11.41,-11.41,0,*66
1491491239.11,29260,14.0,72480.0,-10.57,-11.45,-11.37,0,*69
1491491240.33,29261,14.0,72526.5,-10.57,-11.41,-11.41,0,*6D
1491491241.55,29262,14.0,72524.8,-10.57,-11.41,-11.41,0,*6E
1491491242.82,29263,14.0,72514.0,-10.57,-11.55,-11.59,0,*63
1491491244.12,29264,14.0,72510.5,-10.55,-11.59,-11.59,0,*6A
1491491245.39,29265,13.94,72528.0,-10.55,-11.45,-11.55,0,*6A
1491491246.65,29266,14.0,72538.0,-10.55,-11.37,-11.23,0,*6D
1491491247.92,29267,14.0,72528.5,-10.55,-11.41,-11.37,0,*68
1491491249.17,29268,14.0,72538.3,-10.55,-11.41,-11.41,0,*66
1491491250.41,29269,13.94,72546.8,-10.55,-11.41,-11.41,0,*67
1491491251.7,29270,13.94,72532.8,-10.55,-11.73,-11.73,0,*6F
1491491252.95,29271,13.94,72512.8,-10.55,-12.21,-12.21,0,*6E
1491491254.19,29272,13.94,72492.3,-10.55,-12.39,-12.39,0,*6D
1491491255.49,29273,13.94,72508.8,-10.55,-12.07,-12.07,0,*6C
1491491256.79,29274,13.94,72522.8,-10.55,-11.93,-11.93,0,*6B
1491491258.06,29275,13.94,72504.0,-10.57,-12.11,-12.11,0,*68
1491491259.32,29276,13.94,72460.0,-10.57,-11.81,-11.73,0,*66
1491491260.61,29277,13.94,72462.3,-10.59,-11.51,-11.51,0,*64
1491491261.88,29278,13.94,72502.5,-10.57,-11.67,-11.67,0,*65
1491491263.15,29279,13.94,72442.8,-10.57,-11.59,-11.67,0,*69
1491491264.42,29280,13.94,72448.0,-10.57,-11.73,-11.73,0,*62
1491491265.68,29281,13.94,72460.3,-10.57,-11.73,-11.59,0,*6B
1491491266.97,29282,13.94,72460.0,-10.59,-11.51,-11.51,0,*6E
1491491268.2,29283,13.94,72456.5,-10.57,-11.45,-11.45,0,*61
1491491269.46,29284,13.94,72452.3,-10.57,-11.37,-11.37,0,*66
1491491270.73,29285,13.94,72448.0,-10.57,-11.59,-11.67,0,*6A
1491491271.98,29286,13.94,72498.5,-10.59,-11.45,-11.45,0,*6A
1491491273.21,29287,13.94,72450.5,-10.57,-11.45,-11.41,0,*61
1491491274.45,29288,13.94,72470.8,-10.57,-11.59,-11.45,0,*67
1491491275.73,29289,13.94,72470.5,-10.57,-11.59,-11.55,0,*67
1491491276.95,29290,13.94,72500.8,-10.57,-11.45,-11.45,0,*63
1491491278.24,29291,13.94,72508.0,-10.59,-11.59,-11.59,0,*6C
1491491279.51,29292,13.94,72490.3,-10.57,-11.37,-11.37,0,*61
1491491280.73,29293,13.94,72460.3,-10.57,-11.41,-11.41,0,*60
1491491281.98,29294,13.94,72494.3,-10.57,-11.45,-11.55,0,*66
1491491283.25,29295,13.94,72510.3,-10.57,-11.55,-11.55,0,*66
1491491284.52,29296,13.94,72518.8,-10.57,-11.81,-11.73,0,*68
1491491285.79,29297,13.94,72532.0,-10.57,-11.93,-12.07,0,*6A
1491491287.01,29298,13.94,72522.0,-10.57,-12.43,-12.43,0,*6B
1491491288.29,29299,13.94,72506.0,-10.57,-12.71,-12.71,0,*6A
1491491289.58,29300,13.94,72512.3,-10.59,-12.71,-12.61,0,*64
1491491290.82,29301,13.94,72532.3,-10.59,-12.29,-12.39,0,*65
1491491292.07,29302,13.94,72544.8,-10.57,-12.25,-12.11,0,*6E
1491491293.36,29303,13.94,72522.5,-10.59,-12.15,-12.15,0,*66
1491491294.65,29304,13.94,72532.5,-10.59,-11.97,-11.97,0,*61
1491491295.95,29305,13.94,72534.3,-10.63,-11.93,-11.93,0,*69
1491491297.24,29306,13.94,72536.8,-10.59,-11.73,-11.73,0,*63
1491491298.51,29307,13.94,72552.3,-10.59,-11.89,-12.03,0,*63
1491491299.78,29308,13.94,72552.8,-10.63,-12.29,-12.35,0,*69
1491491301.07,29309,13.94,72548.3,-10.63,-12.61,-12.53,0,*64
1491491302.34,29310,13.94,72550.3,-10.65,-12.35,-12.35,0,*6B
1491491303.56,29311,13.94,72550.8,-10.65,-12.29,-12.29,0,*6A